HAIYANG 2D

导读

海洋二号D(HAIYANG 2D)卫星是中国于2021年5月19日发射的第四颗海洋动力环境卫星,作为国家民用空间基础设施第三颗业务卫星,它与B、C星共同构建了我国首个海洋动力环境卫星星座。该卫星配置雷达高度计、微波散射计等载荷,可监测海面风场、海浪、海温等参数,具备全球海域小时级观测能力,为海洋防灾减灾、气象预报、海上交通和科学研究提供关键支撑,多项指标达到国际先进水平。

基本信息
目录编号:
48621
目录名称:
HAIYANG 2D
国际标识:
2021-043A
轨道中心:
EARTH
卫星名称:
HAIYANG 2D
卫星全名:
--
卫星状态:
在轨 (已飞行1941 天)
发射日期:
2021-05-19 UTC
国别 :
中国 (CN)
星等 :
--
该卫星已列入 空间交会检测服务 Space Conjunction Data Service (SCDS) ,当前飞行风险评估等级: 无高风险
轨道信息
数据来源 国际轨道数据 AOE轨道数据
星历时间 2026-09-11T15:45:32+0800
5小时前
查看轨道信息
2026-09-10T15:00:00+0800
1天前
查看轨道信息
半长轴 7330.078km 7330.092km
偏心率 0.0010794 0.0010635
轨道倾角 65.997° 65.996°
近地点辐角 260.175° 265.599°
升交点赤经 90.251° 92.818°
平近点角 99.810° 357.276°
近地点 944.028km 944.159km
远地点 959.854km 959.751km
周期 104.093分钟 104.094分钟
每日圈数 13.833749 13.833711
详细信息
使用方式:
暂无
2D轨道图
3D轨道图
轨道高度分析图
轨道倾角分析图
轨道综合分析图
查看轨道综合分析图
与全量物体交会距离演化趋势
与全量物体交会风险概率演化趋势